Cloud_Cover
10 0 3 49 29 62 73 100 100 0 0 0 0 0 30 1 9 32 0 0 0 0 4 4 59 96 91 47 85 99 86 51 4 13 1 0 2 0 2 0 5 36 12
0 0 0 79 100 61 100 22 33 0 0 0 100 96 6 0 34 1 0 0 0 0 0 2 1 100 100 20 14 34 100 100 34 5 6 0 0 0 5 0 1 4 10
0 0 0 0 0 24 97 61 91 0 96 100 22 1 1 0 0 35 2 0 0 0 0 0 0 32 100 100 100 84 16 56 100 90 8 79 2 0 0 0 0 5 5
0 0 0 0 11 100 25 0 0 2 0 0 0 0 0 76 13 97 0 2 0 0 0 0 0 0 82 100 100 100 100 100 100 100 81 60 66 0 0 0 5 4 5
1 0 0 0 0 76 0 0 0 0 0 0 0 0 0 5 88 1 45 4 2 21 0 0 0 0 0 70 100 100 100 100 100 100 100 78 92 94 89 0 1 3 0
0 0 0 0 0 0 0 0 48 81 0 0 0 0 0 0 0 12 100 19 0 56 100 5 1 16 2 5 92 100 100 100 100 100 100 100 88 89 86 61 4 0 1
0 0 0 0 0 4 3 65 0 0 0 0 0 54 0 18 91 77 0 4 2 4 2 5 12 27 97 5 17 5 92 100 100 100 100 100 100 99 88 45 37 3 0
0 0 0 0 0 13 3 7 0 0 0 5 0 0 6 56 72 98 97 31 0 4 9 53 5 2 7 1 2 2 5 98 100 100 100 100 100 100 100 100 100 42 5
34 0 0 0 0 0 0 0 0 0 0 0 0 0 1 0 100 38 94 16 1 3 8 100 5 16 24 3 0 0 1 5 100 100 100 100 100 100 100 100 97 98 69
0 0 0 0 0 5 30 0 0 2 68 5 0 0 0 0 0 54 39 2 13 6 5 77 75 19 7 74 2 8 0 1 49 100 100 100 100 100 100 100 100 100 100
0 0 0 0 0 0 0 0 0 2 3 2 5 0 0 22 3 3 1 0 49 14 99 100 6 55 54 50 9 83 25 0 0 89 100 100 100 100 100 100 100 100 100
0 0 0 0 0 0 0 0 0 1 0 0 0 0 0 0 0 0 4 2 5 4 22 100 100 88 9 48 82 25 73 8 1 3 33 100 100 100 100 100 100 100 100
0 0 0 0 0 0 0 0 5 8 5 5 4 3 0 0 0 0 2 4 5 6 12 100 100 96 100 79 34 87 8 8 29 4 2 4 52 100 100 100 100 100 100
0 0 0 0 0 0 0 0 7 54 96 11 93 83 5 4 4 4 5 5 18 5 6 100 100 100 99 6 10 5 32 90 15 93 21 5 0 4 96 100 100 100 100
0 0 0 0 0 0 1 4 5 83 5 53 16 23 63 9 50 86 60 33 14 58 22 100 100 100 62 21 53 84 9 5 5 5 5 3 5 4 3 7 53 100 100
0 0 0 0 0 0 0 0 2 5 13 61 42 44 100 83 5 47 100 70 90 100 100 100 100 74 77 48 97 98 100 36 5 5 5 5 3 5 4 0 1 0 6
0 0 0 0 0 0 4 0 0 0 0 14 38 5 48 44 65 5 80 92 100 100 100 100 96 100 100 100 100 100 100 98 12 5 12 5 2 4 0 0 4 5 4
0 0 0 0 0 0 0 12 65 5 0 17 21 5 28 61 93 72 95 100 100 97 100 100 100 100 100 100 100 100 100 100 100 100 10 4 33 12 5 29 81 5 6
0 0 0 0 5 5 5 31 99 5 5 4 0 5 49 93 100 100 100 75 99 79 90 95 100 100 100 100 100 100 100 100 100 100 100 100 100 97 5 100 100 100 96
0 0 0 0 5 4 32 62 74 100 6 0 0 5 43 100 100 40 99 100 100 75 58 45 100 100 100 96 100 100 100 100 100 100 100 100 100 65 100 100 100 100 100
0 0 0 0 3 5 5 75 97 56 90 0 0 0 36 100 100 100 100 100 100 100 100 100 100 100 100 100 100 100 100 100 100 100 97 96 100 100 100 99 100 100 5
0 5 5 0 5 5 8 18 69 80 99 4 0 0 21 98 100 100 100 100 100 100 100 100 100 100 100 100 100 99 84 99 100 100 100 100 100 100 100 100 99 100 100
0 5 5 5 5 69 79 88 94 69 39 0 0 4 90 100 100 100 87 45 100 100 100 100 88 87 80 99 100 100 100 52 99 100 62 91 76 97 100 100 82 79 6
5 5 5 9 35 34 70 90 100 99 100 39 43 85 100 100 100 100 100 100 100 100 100 98 87 91 64 19 5 15 5 5 20 25 2 0 0 0 0 0 0 0 0
5 5 0 21 89 100 100 100 100 100 100 100 100 95 54 100 100 70 76 100 100 100 95 71 12 5 5 5 5 1 0 0 0 0 0 0 0 0 0 0 0 0 0
5 0 23 53 100 100 100 100 100 100 100 100 100 20 100 96 99 10 47 91 90 96 15 17 50 81 45 6 5 2 0 0 0 3 0 0 0 0 0 0 0 0 0